Location: ?????????
(54.7630°N, 39.4991°E)
Time: 06:30:04
(UTC+00:00)

Okean O Rocket - Pass Details

Date: 14 April 2026
Orbit: 612 x 635 km, 98.0° (Epoch: 10 May)

Event Time Altitude Azimuth Distance (km) Brightness Sun altitude
Exits shadow 18:25:07 14° 186° (S) 1,768 3.5 -15.7°
Maximum altitude 18:28:46 51° 260° (W) 793 2.3 -16.1°
Drops below altitude 10° 18:33:01 10° 337° (NNW) 2,003 5.3 -16.5°
Sets 18:35:16 0° 342° (NNW) 2,910 6.2 -16.7°
